06-07-2022, 00:00:05,    279,    0.0,   12.0,   0.00,   0.00, 1023.6,   64.8, -999.0
06-07-2022, 00:00:14,    279,    0.0,   12.0,   0.00,   0.00, 1023.5,   64.6, -999.0
06-07-2022, 00:00:24,    279,    0.0,   12.0,   0.00,   0.00, 1023.5,   64.7, -999.0
06-07-2022, 00:00:34,    279,    0.0,   12.0,   0.00,   0.00, 1023.5,   64.7, -999.0
06-07-2022, 00:00:44,    279,    0.0,   12.0,   0.00,   0.00, 1023.5,   64.7, -999.0
06-07-2022, 00:00:54,    279,    0.0,   12.0,   0.00,   0.00, 1023.5,   64.8, -999.0
06-07-2022, 00:01:04,    279,    0.0,   11.9,   0.00,   0.00, 1023.5,   64.8, -999.0
06-07-2022, 00:01:14,    279,    0.0,   12.0,   0.00,   0.00, 1023.5,   64.6, -999.0
06-07-2022, 00:01:24,    279,    0.0,   12.0,   0.00,   0.00, 1023.5,   64.7, -999.0
06-07-2022, 00:01:34,    279,    0.5,   12.0,   0.00,   0.00, 1023.7,   65.1, -999.0
06-07-2022, 00:01:44,    279,    0.0,   12.1,   0.00,   0.00, 1023.5,   64.9, -999.0
06-07-2022, 00:01:54,    279,    0.2,   12.0,   0.00,   0.00, 1023.6,   64.9, -999.0
06-07-2022, 00:02:04,    279,    0.1,   12.1,   0.00,   0.00, 1023.6,   64.9, -999.0
06-07-2022, 00:02:14,    280,    0.0,   12.0,   0.00,   0.00, 1023.5,   64.7, -999.0
06-07-2022, 00:02:24,    291,    0.0,   12.0,   0.00,   0.00, 1023.5,   64.8, -999.0
06-07-2022, 00:02:34,    305,    0.4,   12.1,   0.00,   0.00, 1023.6,   64.9, -999.0
06-07-2022, 00:02:44,    304,    0.5,   12.1,   0.00,   0.00, 1023.7,   64.9, -999.0
06-07-2022, 00:02:53,    304,    0.0,   12.0,   0.00,   0.00, 1023.5,   64.6, -999.0
06-07-2022, 00:03:04,    304,    0.0,   12.0,   0.00,   0.00, 1023.5,   64.5, -999.0
06-07-2022, 00:03:14,    304,    0.0,   12.0,   0.00,   0.00, 1023.5,   64.6, -999.0
06-07-2022, 00:03:23,    304,    0.0,   12.0,   0.00,   0.00, 1023.5,   64.6, -999.0
06-07-2022, 00:03:34,    304,    0.0,   12.0,   0.00,   0.00, 1023.5,   64.7, -999.0
06-07-2022, 00:03:43,    304,    0.0,   12.0,   0.00,   0.00, 1023.5,   64.7, -999.0
06-07-2022, 00:03:53,    304,    0.0,   12.0,   0.00,   0.00, 1023.5,   64.5, -999.0
06-07-2022, 00:04:03,    304,    0.0,   12.0,   0.00,   0.00, 1023.5,   64.7, -999.0
06-07-2022, 00:04:13,    304,    0.0,   11.9,   0.00,   0.00, 1023.5,   64.6, -999.0
06-07-2022, 00:04:23,    304,    0.0,   11.9,   0.00,   0.00, 1023.5,   64.7, -999.0
06-07-2022, 00:04:33,    304,    0.0,   11.9,   0.00,   0.00, 1023.5,   64.6, -999.0
06-07-2022, 00:04:43,    304,    0.0,   12.0,   0.00,   0.00, 1023.5,   64.7, -999.0
06-07-2022, 00:04:53,    304,    0.0,   12.0,   0.00,   0.00, 1023.5,   64.7, -999.0
06-07-2022, 00:05:03,    304,    0.0,   11.9,   0.00,   0.00, 1023.5,   64.8, -999.0
06-07-2022, 00:05:13,    304,    0.1,   11.9,   0.00,   0.00, 1023.6,   64.9, -999.0
06-07-2022, 00:05:23,    304,    0.0,   11.9,   0.00,   0.00, 1023.6,   64.8, -999.0
06-07-2022, 00:05:33,    304,    0.0,   11.9,   0.00,   0.00, 1023.5,   64.7, -999.0
06-07-2022, 00:05:43,    304,    0.0,   11.9,   0.00,   0.00, 1023.5,   64.6, -999.0
06-07-2022, 00:05:53,    304,    0.0,   11.9,   0.00,   0.00, 1023.5,   64.7, -999.0
06-07-2022, 00:06:03,    304,    0.0,   11.9,   0.00,   0.00, 1023.6,   64.7, -999.0
06-07-2022, 00:06:13,    304,    0.0,   11.9,   0.00,   0.00, 1023.5,   64.8, -999.0
06-07-2022, 00:06:22,    304,    0.0,   11.9,   0.00,   0.00, 1023.5,   64.7, -999.0
06-07-2022, 00:06:32,    304,    0.0,   11.9,   0.00,   0.00, 1023.5,   64.7, -999.0
06-07-2022, 00:06:43,    304,    0.0,   11.9,   0.00,   0.00, 1023.5,   64.7, -999.0
06-07-2022, 00:06:52,    304,    0.0,   11.9,   0.00,   0.00, 1023.5,   64.7, -999.0
06-07-2022, 00:07:02,    304,    0.0,   11.9,   0.00,   0.00, 1023.5,   64.7, -999.0
06-07-2022, 00:07:12,    304,    0.0,   11.8,   0.00,   0.00, 1023.5,   64.9, -999.0
06-07-2022, 00:07:22,    305,    0.0,   11.8,   0.00,   0.00, 1023.5,   64.7, -999.0
06-07-2022, 00:07:32,    304,    0.0,   11.8,   0.00,   0.00, 1023.6,   64.6, -999.0
06-07-2022, 00:07:42,    304,    0.1,   11.8,   0.00,   0.00, 1023.6,   65.0, -999.0
06-07-2022, 00:07:52,    304,    0.0,   11.8,   0.00,   0.00, 1023.5,   64.7, -999.0
06-07-2022, 00:08:02,    304,    0.0,   11.8,   0.00,   0.00, 1023.6,   64.6, -999.0
06-07-2022, 00:08:12,    304,    0.0,   11.9,   0.00,   0.00, 1023.5,   64.7, -999.0
06-07-2022, 00:08:22,    304,    0.0,   11.8,   0.00,   0.00, 1023.5,   64.8, -999.0
06-07-2022, 00:08:32,    305,    0.1,   11.8,   0.00,   0.00, 1023.6,   64.9, -999.0
06-07-2022, 00:08:42,    305,    0.1,   11.9,   0.00,   0.00, 1023.6,   65.1, -999.0
06-07-2022, 00:08:52,    306,    0.2,   11.9,   0.00,   0.00, 1023.7,   65.1, -999.0
06-07-2022, 00:09:01,    306,    0.5,   11.9,   0.00,   0.00, 1023.7,   65.2, -999.0
06-07-2022, 00:09:12,    307,    0.4,   11.9,   0.00,   0.00, 1023.6,   65.3, -999.0
06-07-2022, 00:09:22,    306,    0.0,   11.8,   0.00,   0.00, 1023.6,   64.9, -999.0
06-07-2022, 00:09:31,    306,    0.0,   11.9,   0.00,   0.00, 1023.5,   64.8, -999.0
06-07-2022, 00:09:42,    307,    0.0,   11.8,   0.00,   0.00, 1023.5,   64.9, -999.0
06-07-2022, 00:09:52,    307,    0.0,   11.9,   0.00,   0.00, 1023.5,   64.9, -999.0
06-07-2022, 00:10:01,    307,    0.0,   11.8,   0.00,   0.00, 1023.5,   64.9, -999.0
06-07-2022, 00:10:11,    306,    0.0,   11.9,   0.00,   0.00, 1023.5,   65.0, -999.0
06-07-2022, 00:10:21,    307,    0.0,   11.8,   0.00,   0.00, 1023.5,   64.9, -999.0
06-07-2022, 00:10:31,    307,    0.0,   11.7,   0.00,   0.00, 1023.5,   64.9, -999.0
06-07-2022, 00:10:41,    307,    0.0,   11.8,   0.00,   0.00, 1023.5,   64.9, -999.0
06-07-2022, 00:10:51,    306,    0.0,   11.7,   0.00,   0.00, 1023.5,   64.8, -999.0
06-07-2022, 00:11:01,    307,    0.0,   11.8,   0.00,   0.00, 1023.5,   64.9, -999.0
06-07-2022, 00:11:11,    307,    0.0,   11.8,   0.00,   0.00, 1023.5,   65.0, -999.0
06-07-2022, 00:11:21,    307,    0.0,   11.8,   0.00,   0.00, 1023.5,   65.1, -999.0
06-07-2022, 00:11:31,    307,    0.0,   11.7,   0.00,   0.00, 1023.5,   65.0, -999.0
06-07-2022, 00:11:41,    307,    0.0,   11.7,   0.00,   0.00, 1023.5,   64.9, -999.0
06-07-2022, 00:11:51,    306,    0.0,   11.7,   0.00,   0.00, 1023.5,   65.1, -999.0
06-07-2022, 00:12:01,    307,    0.0,   11.7,   0.00,   0.00, 1023.5,   65.2, -999.0
06-07-2022, 00:12:10,    307,    0.0,   11.7,   0.00,   0.00, 1023.5,   65.2, -999.0
06-07-2022, 00:12:21,    307,    0.0,   11.6,   0.00,   0.00, 1023.5,   65.2, -999.0
06-07-2022, 00:12:31,    307,    0.0,   11.7,   0.00,   0.00, 1023.6,   65.4, -999.0
06-07-2022, 00:12:40,    307,    0.0,   11.7,   0.00,   0.00, 1023.5,   65.1, -999.0
06-07-2022, 00:12:51,    307,    0.0,   11.7,   0.00,   0.00, 1023.5,   65.1, -999.0
06-07-2022, 00:13:01,    306,    0.0,   11.6,   0.00,   0.00, 1023.5,   65.2, -999.0
06-07-2022, 00:13:10,    306,    0.0,   11.7,   0.00,   0.00, 1023.5,   65.2, -999.0
06-07-2022, 00:13:20,    306,    0.0,   11.7,   0.00,   0.00, 1023.5,   65.2, -999.0
06-07-2022, 00:13:30,    307,    0.0,   11.6,   0.00,   0.00, 1023.5,   65.3, -999.0
06-07-2022, 00:13:40,    307,    0.0,   11.6,   0.00,   0.00, 1023.5,   65.2, -999.0
06-07-2022, 00:13:50,    307,    0.0,   11.6,   0.00,   0.00, 1023.5,   65.2, -999.0
06-07-2022, 00:14:00,    307,    0.0,   11.7,   0.00,   0.00, 1023.5,   65.5, -999.0
06-07-2022, 00:14:10,    305,    0.0,   11.6,   0.00,   0.00, 1023.5,   65.6, -999.0
06-07-2022, 00:14:20,    306,    0.0,   11.6,   0.00,   0.00, 1023.5,   65.7, -999.0
06-07-2022, 00:14:30,    306,    0.0,   11.6,   0.00,   0.00, 1023.5,   65.7, -999.0
06-07-2022, 00:14:40,    307,    0.0,   11.5,   0.00,   0.00, 1023.5,   65.6, -999.0
06-07-2022, 00:14:50,    307,    0.0,   11.6,   0.00,   0.00, 1023.5,   65.5, -999.0
06-07-2022, 00:15:00,    307,    0.0,   11.6,   0.00,   0.00, 1023.5,   65.6, -999.0
06-07-2022, 00:15:10,    307,    0.0,   11.6,   0.00,   0.00, 1023.5,   65.6, -999.0
06-07-2022, 00:15:20,    307,    0.0,   11.6,   0.00,   0.00, 1023.5,   65.5, -999.0
06-07-2022, 00:15:30,    307,    0.0,   11.6,   0.00,   0.00, 1023.5,   65.6, -999.0
06-07-2022, 00:15:40,    306,    0.0,   11.6,   0.00,   0.00, 1023.5,   65.6, -999.0
06-07-2022, 00:15:49,    307,    0.0,   11.6,   0.00,   0.00, 1023.5,   65.6, -999.0
06-07-2022, 00:16:00,    307,    0.0,   11.5,   0.00,   0.00, 1023.5,   65.8, -999.0
06-07-2022, 00:16:09,    307,    0.0,   11.6,   0.00,   0.00, 1023.5,   65.8, -999.0
06-07-2022, 00:16:19,    306,    0.0,   11.6,   0.00,   0.00, 1023.5,   65.8, -999.0
06-07-2022, 00:16:29,    306,    0.0,   11.6,   0.00,   0.00, 1023.5,   66.0, -999.0
06-07-2022, 00:16:39,    306,    0.0,   11.6,   0.00,   0.00, 1023.5,   65.9, -999.0
06-07-2022, 00:16:49,    307,    0.0,   11.6,   0.00,   0.00, 1023.5,   65.9, -999.0
06-07-2022, 00:16:59,    307,    0.0,   11.6,   0.00,   0.00, 1023.5,   65.9, -999.0
06-07-2022, 00:17:09,    307,    0.0,   11.6,   0.00,   0.00, 1023.5,   65.8, -999.0
06-07-2022, 00:17:19,    306,    0.0,   11.6,   0.00,   0.00, 1023.5,   65.7, -999.0
06-07-2022, 00:17:29,    306,    0.0,   11.6,   0.00,   0.00, 1023.5,   65.7, -999.0
06-07-2022, 00:17:39,    307,    0.0,   11.6,   0.00,   0.00, 1023.5,   65.7, -999.0
06-07-2022, 00:17:49,    307,    0.0,   11.6,   0.00,   0.00, 1023.5,   65.9, -999.0
06-07-2022, 00:17:59,    306,    0.0,   11.6,   0.00,   0.00, 1023.5,   65.9, -999.0
06-07-2022, 00:18:09,    305,    0.0,   11.6,   0.00,   0.00, 1023.5,   65.8, -999.0
06-07-2022, 00:18:19,    305,    0.0,   11.6,   0.00,   0.00, 1023.5,   65.6, -999.0
06-07-2022, 00:18:29,    305,    0.0,   11.6,   0.00,   0.00, 1023.5,   65.7, -999.0
06-07-2022, 00:18:39,    305,    0.0,   11.7,   0.00,   0.00, 1023.5,   65.7, -999.0
06-07-2022, 00:18:49,    305,    0.0,   11.7,   0.00,   0.00, 1023.5,   65.6, -999.0
06-07-2022, 00:18:58,    305,    0.0,   11.6,   0.00,   0.00, 1023.5,   65.6, -999.0
06-07-2022, 00:19:09,    305,    0.0,   11.7,   0.00,   0.00, 1023.5,   65.6, -999.0
06-07-2022, 00:19:18,    305,    0.0,   11.7,   0.00,   0.00, 1023.5,   65.6, -999.0
06-07-2022, 00:19:28,    305,    0.0,   11.7,   0.00,   0.00, 1023.5,   65.6, -999.0
06-07-2022, 00:19:39,    305,    0.0,   11.7,   0.00,   0.00, 1023.5,   65.6, -999.0
06-07-2022, 00:19:48,    305,    0.0,   11.7,   0.00,   0.00, 1023.5,   65.6, -999.0
06-07-2022, 00:19:58,    305,    0.0,   11.7,   0.00,   0.00, 1023.5,   65.6, -999.0
06-07-2022, 00:20:08,    305,    0.0,   11.8,   0.00,   0.00, 1023.5,   65.6, -999.0
06-07-2022, 00:20:18,    305,    0.0,   11.8,   0.00,   0.00, 1023.5,   65.6, -999.0
06-07-2022, 00:20:28,    305,    0.0,   11.8,   0.00,   0.00, 1023.5,   65.5, -999.0
06-07-2022, 00:20:38,    306,    0.0,   11.7,   0.00,   0.00, 1023.5,   65.5, -999.0
06-07-2022, 00:20:48,    305,    0.0,   11.7,   0.00,   0.00, 1023.5,   65.6, -999.0
06-07-2022, 00:20:58,    305,    0.0,   11.7,   0.00,   0.00, 1023.5,   65.5, -999.0
06-07-2022, 00:21:08,    305,    0.0,   11.7,   0.00,   0.00, 1023.5,   65.4, -999.0
06-07-2022, 00:21:18,    305,    0.0,   11.7,   0.00,   0.00, 1023.5,   65.5, -999.0
06-07-2022, 00:21:28,    305,    0.0,   11.7,   0.00,   0.00, 1023.5,   65.5, -999.0
06-07-2022, 00:21:38,    305,    0.0,   11.7,   0.00,   0.00, 1023.5,   65.5, -999.0
06-07-2022, 00:21:48,    305,    0.0,   11.7,   0.00,   0.00, 1023.5,   65.5, -999.0
06-07-2022, 00:21:57,    305,    0.0,   11.6,   0.00,   0.00, 1023.5,   65.4, -999.0
06-07-2022, 00:22:08,    305,    0.0,   11.6,   0.00,   0.00, 1023.5,   65.5, -999.0
06-07-2022, 00:22:18,    305,    0.0,   11.5,   0.00,   0.00, 1023.5,   65.8, -999.0
06-07-2022, 00:22:27,    305,    0.0,   11.6,   0.00,   0.00, 1023.5,   65.8, -999.0
06-07-2022, 00:22:37,    305,    0.0,   11.6,   0.00,   0.00, 1023.5,   65.8, -999.0
06-07-2022, 00:22:48,    305,    0.0,   11.7,   0.00,   0.00, 1023.5,   65.7, -999.0
06-07-2022, 00:22:57,    305,    0.0,   11.6,   0.00,   0.00, 1023.5,   65.7, -999.0
06-07-2022, 00:23:07,    305,    0.0,   11.6,   0.00,   0.00, 1023.5,   65.7, -999.0
06-07-2022, 00:23:17,    305,    0.0,   11.6,   0.00,   0.00, 1023.5,   65.7, -999.0
06-07-2022, 00:23:27,    305,    0.0,   11.7,   0.00,   0.00, 1023.5,   66.0, -999.0
06-07-2022, 00:23:37,    305,    0.0,   11.6,   0.00,   0.00, 1023.5,   65.9, -999.0
06-07-2022, 00:23:47,    305,    0.0,   11.6,   0.00,   0.00, 1023.6,   65.8, -999.0
06-07-2022, 00:23:57,    305,    0.0,   11.6,   0.00,   0.00, 1023.5,   65.8, -999.0
06-07-2022, 00:24:07,    305,    0.0,   11.6,   0.00,   0.00, 1023.5,   65.6, -999.0
06-07-2022, 00:24:17,    305,    0.0,   11.6,   0.00,   0.00, 1023.5,   65.6, -999.0
06-07-2022, 00:24:27,    305,    0.0,   11.6,   0.00,   0.00, 1023.6,   65.8, -999.0
06-07-2022, 00:24:37,    305,    0.0,   11.6,   0.00,   0.00, 1023.5,   65.7, -999.0
06-07-2022, 00:24:47,    305,    0.0,   11.6,   0.00,   0.00, 1023.6,   65.6, -999.0
06-07-2022, 00:24:57,    305,    0.0,   11.5,   0.00,   0.00, 1023.5,   65.8, -999.0
06-07-2022, 00:25:06,    305,    0.0,   11.5,   0.00,   0.00, 1023.5,   65.9, -999.0
06-07-2022, 00:25:17,    305,    0.0,   11.6,   0.00,   0.00, 1023.5,   65.9, -999.0
06-07-2022, 00:25:27,    305,    0.0,   11.6,   0.00,   0.00, 1023.5,   65.9, -999.0
06-07-2022, 00:25:36,    305,    0.0,   11.6,   0.00,   0.00, 1023.5,   66.0, -999.0
06-07-2022, 00:25:46,    305,    0.0,   11.6,   0.00,   0.00, 1023.5,   66.1, -999.0
06-07-2022, 00:25:57,    305,    0.0,   11.5,   0.00,   0.00, 1023.5,   66.0, -999.0
06-07-2022, 00:26:06,    305,    0.0,   11.5,   0.00,   0.00, 1023.5,   66.1, -999.0
06-07-2022, 00:26:16,    305,    0.0,   11.5,   0.00,   0.00, 1023.5,   66.0, -999.0
06-07-2022, 00:26:26,    304,    0.0,   11.5,   0.00,   0.00, 1023.5,   66.0, -999.0
06-07-2022, 00:26:36,    305,    0.0,   11.5,   0.00,   0.00, 1023.5,   66.1, -999.0
06-07-2022, 00:26:46,    305,    0.0,   11.4,   0.00,   0.00, 1023.5,   66.0, -999.0
06-07-2022, 00:26:56,    305,    0.0,   11.5,   0.00,   0.00, 1023.5,   65.9, -999.0
06-07-2022, 00:27:06,    305,    0.0,   11.5,   0.00,   0.00, 1023.5,   66.1, -999.0
06-07-2022, 00:27:16,    305,    0.0,   11.5,   0.00,   0.00, 1023.5,   66.0, -999.0
06-07-2022, 00:27:26,    305,    0.0,   11.5,   0.00,   0.00, 1023.5,   66.1, -999.0
06-07-2022, 00:27:36,    305,    0.0,   11.5,   0.00,   0.00, 1023.5,   66.2, -999.0
06-07-2022, 00:27:46,    305,    0.0,   11.5,   0.00,   0.00, 1023.5,   66.2, -999.0
06-07-2022, 00:27:56,    305,    0.0,   11.5,   0.00,   0.00, 1023.5,   66.2, -999.0
06-07-2022, 00:28:06,    305,    0.0,   11.4,   0.00,   0.00, 1023.5,   66.1, -999.0
06-07-2022, 00:28:15,    305,    0.0,   11.5,   0.00,   0.00, 1023.5,   66.2, -999.0
06-07-2022, 00:28:26,    305,    0.0,   11.4,   0.00,   0.00, 1023.5,   66.2, -999.0
06-07-2022, 00:28:36,    305,    0.0,   11.4,   0.00,   0.00, 1023.5,   66.2, -999.0
06-07-2022, 00:28:45,    305,    0.0,   11.4,   0.00,   0.00, 1023.5,   66.2, -999.0
06-07-2022, 00:28:56,    305,    0.0,   11.4,   0.00,   0.00, 1023.5,   66.2, -999.0
06-07-2022, 00:29:05,    305,    0.0,   11.4,   0.00,   0.00, 1023.5,   66.3, -999.0
06-07-2022, 00:29:15,    305,    0.0,   11.3,   0.00,   0.00, 1023.5,   66.3, -999.0
06-07-2022, 00:29:25,    305,    0.0,   11.4,   0.00,   0.00, 1023.5,   66.2, -999.0
06-07-2022, 00:29:35,    305,    0.0,   11.4,   0.00,   0.00, 1023.5,   66.3, -999.0
06-07-2022, 00:29:45,    305,    0.0,   11.4,   0.00,   0.00, 1023.5,   66.4, -999.0
06-07-2022, 00:29:55,    305,    0.0,   11.4,   0.00,   0.00, 1023.5,   66.3, -999.0
06-07-2022, 00:30:05,    305,    0.0,   11.5,   0.00,   0.00, 1023.5,   66.3, -999.0
06-07-2022, 00:30:15,    305,    0.0,   11.2,   0.00,   0.00, 1023.5,   66.3, -999.0
06-07-2022, 00:30:25,    305,    0.0,   11.3,   0.00,   0.00, 1023.5,   66.3, -999.0
06-07-2022, 00:30:35,    305,    0.0,   11.4,   0.00,   0.00, 1023.5,   66.3, -999.0
06-07-2022, 00:30:45,    305,    0.0,   11.3,   0.00,   0.00, 1023.5,   66.3, -999.0
06-07-2022, 00:30:55,    305,    0.0,   11.3,   0.00,   0.00, 1023.5,   66.3, -999.0
06-07-2022, 00:31:05,    305,    0.0,   11.4,   0.00,   0.00, 1023.5,   66.3, -999.0
06-07-2022, 00:31:15,    305,    0.0,   11.4,   0.00,   0.00, 1023.5,   66.4, -999.0
06-07-2022, 00:31:25,    305,    0.0,   11.3,   0.00,   0.00, 1023.5,   66.4, -999.0
06-07-2022, 00:31:35,    305,    0.0,   11.3,   0.00,   0.00, 1023.5,   66.4, -999.0
06-07-2022, 00:31:45,    305,    0.0,   11.3,   0.00,   0.00, 1023.5,   66.5, -999.0
06-07-2022, 00:31:54,    305,    0.0,   11.3,   0.00,   0.00, 1023.5,   66.6, -999.0
06-07-2022, 00:32:05,    305,    0.0,   11.3,   0.00,   0.00, 1023.5,   66.6, -999.0
06-07-2022, 00:32:14,    305,    0.0,   11.3,   0.00,   0.00, 1023.5,   66.6, -999.0
06-07-2022, 00:32:24,    305,    0.0,   11.3,   0.00,   0.00, 1023.5,   66.6, -999.0
06-07-2022, 00:32:34,    305,    0.0,   11.3,   0.00,   0.00, 1023.5,   66.6, -999.0
06-07-2022, 00:32:44,    305,    0.0,   11.3,   0.00,   0.00, 1023.5,   66.7, -999.0
06-07-2022, 00:32:54,    305,    0.0,   11.3,   0.00,   0.00, 1023.5,   66.7, -999.0
06-07-2022, 00:33:04,    305,    0.0,   11.3,   0.00,   0.00, 1023.5,   66.7, -999.0
06-07-2022, 00:33:14,    305,    0.0,   11.3,   0.00,   0.00, 1023.5,   66.7, -999.0
06-07-2022, 00:33:24,    305,    0.0,   11.4,   0.00,   0.00, 1023.4,   66.7, -999.0
06-07-2022, 00:33:34,    305,    0.0,   11.2,   0.00,   0.00, 1023.5,   66.6, -999.0
06-07-2022, 00:33:44,    305,    0.0,   11.3,   0.00,   0.00, 1023.5,   66.8, -999.0
06-07-2022, 00:33:54,    305,    0.0,   11.3,   0.00,   0.00, 1023.5,   66.8, -999.0
06-07-2022, 00:34:04,    305,    0.0,   11.3,   0.00,   0.00, 1023.4,   66.9, -999.0
06-07-2022, 00:34:14,    305,    0.0,   11.3,   0.00,   0.00, 1023.4,   66.9, -999.0
06-07-2022, 00:34:24,    305,    0.0,   11.3,   0.00,   0.00, 1023.4,   66.9, -999.0
06-07-2022, 00:34:34,    305,    0.0,   11.3,   0.00,   0.00, 1023.4,   66.9, -999.0
06-07-2022, 00:34:44,    305,    0.0,   11.2,   0.00,   0.00, 1023.4,   66.9, -999.0
06-07-2022, 00:34:53,    306,    0.0,   11.2,   0.00,   0.00, 1023.4,   66.8, -999.0
06-07-2022, 00:35:03,    305,    0.0,   11.2,   0.00,   0.00, 1023.4,   66.7, -999.0
06-07-2022, 00:35:14,    305,    0.0,   11.2,   0.00,   0.00, 1023.4,   66.7, -999.0
06-07-2022, 00:35:23,    305,    0.0,   11.2,   0.00,   0.00, 1023.4,   66.6, -999.0
06-07-2022, 00:35:33,    305,    0.0,   11.1,   0.00,   0.00, 1023.4,   66.7, -999.0
06-07-2022, 00:35:44,    305,    0.0,   11.1,   0.00,   0.00, 1023.4,   66.8, -999.0
06-07-2022, 00:35:53,    305,    0.0,   11.2,   0.00,   0.00, 1023.4,   66.9, -999.0
06-07-2022, 00:36:03,    305,    0.0,   11.2,   0.00,   0.00, 1023.4,   66.8, -999.0
06-07-2022, 00:36:13,    305,    0.0,   11.1,   0.00,   0.00, 1023.4,   66.9, -999.0
06-07-2022, 00:36:23,    305,    0.0,   11.1,   0.00,   0.00, 1023.4,   67.0, -999.0
06-07-2022, 00:36:33,    305,    0.0,   11.2,   0.00,   0.00, 1023.4,   67.2, -999.0
06-07-2022, 00:36:43,    305,    0.0,   11.2,   0.00,   0.00, 1023.4,   67.4, -999.0
06-07-2022, 00:36:53,    305,    0.0,   11.2,   0.00,   0.00, 1023.4,   67.5, -999.0
06-07-2022, 00:37:03,    305,    0.0,   11.2,   0.00,   0.00, 1023.4,   67.4, -999.0
06-07-2022, 00:37:13,    305,    0.0,   11.3,   0.00,   0.00, 1023.4,   67.4, -999.0
06-07-2022, 00:37:23,    305,    0.0,   11.2,   0.00,   0.00, 1023.4,   67.3, -999.0
06-07-2022, 00:37:33,    305,    0.0,   11.3,   0.00,   0.00, 1023.4,   67.2, -999.0
06-07-2022, 00:37:43,    305,    0.0,   11.3,   0.00,   0.00, 1023.4,   67.2, -999.0
06-07-2022, 00:37:53,    305,    0.0,   11.2,   0.00,   0.00, 1023.4,   67.3, -999.0
06-07-2022, 00:38:02,    305,    0.0,   11.2,   0.00,   0.00, 1023.4,   67.3, -999.0
06-07-2022, 00:38:12,    305,    0.0,   11.3,   0.00,   0.00, 1023.4,   67.3, -999.0
06-07-2022, 00:38:23,    305,    0.0,   11.3,   0.00,   0.00, 1023.4,   67.4, -999.0
06-07-2022, 00:38:32,    305,    0.0,   11.3,   0.00,   0.00, 1023.4,   67.2, -999.0
06-07-2022, 00:38:42,    305,    0.0,   11.3,   0.00,   0.00, 1023.4,   67.2, -999.0
06-07-2022, 00:38:53,    305,    0.0,   11.1,   0.00,   0.00, 1023.4,   67.2, -999.0
06-07-2022, 00:39:02,    305,    0.0,   11.1,   0.00,   0.00, 1023.4,   67.2, -999.0
06-07-2022, 00:39:12,    305,    0.0,   11.2,   0.00,   0.00, 1023.4,   67.0, -999.0
06-07-2022, 00:39:22,    305,    0.0,   11.2,   0.00,   0.00, 1023.4,   67.1, -999.0
06-07-2022, 00:39:32,    305,    0.0,   11.3,   0.00,   0.00, 1023.4,   67.0, -999.0
06-07-2022, 00:39:42,    305,    0.0,   11.2,   0.00,   0.00, 1023.4,   67.2, -999.0
06-07-2022, 00:39:52,    305,    0.0,   11.3,   0.00,   0.00, 1023.4,   67.2, -999.0
06-07-2022, 00:40:02,    305,    0.0,   11.3,   0.00,   0.00, 1023.4,   67.1, -999.0
06-07-2022, 00:40:12,    305,    0.0,   11.2,   0.00,   0.00, 1023.4,   67.0, -999.0
06-07-2022, 00:40:22,    305,    0.0,   11.3,   0.00,   0.00, 1023.4,   67.1, -999.0
06-07-2022, 00:40:34,    305,    0.0,   11.3,   0.00,   0.00, 1023.4,   67.1, -999.0
06-07-2022, 00:40:42,    305,    0.0,   11.2,   0.00,   0.00, 1023.4,   67.2, -999.0
06-07-2022, 00:40:52,    305,    0.0,   11.3,   0.00,   0.00, 1023.3,   67.1, -999.0
06-07-2022, 00:41:02,    305,    0.0,   11.2,   0.00,   0.00, 1023.3,   67.1, -999.0
06-07-2022, 00:41:11,    305,    0.0,   11.3,   0.00,   0.00, 1023.3,   67.1, -999.0
06-07-2022, 00:41:22,    306,    0.0,   11.3,   0.00,   0.00, 1023.3,   67.1, -999.0
06-07-2022, 00:41:32,    305,    0.0,   11.3,   0.00,   0.00, 1023.3,   67.2, -999.0
06-07-2022, 00:41:41,    305,    0.0,   11.3,   0.00,   0.00, 1023.4,   67.1, -999.0
06-07-2022, 00:41:51,    305,    0.0,   11.3,   0.00,   0.00, 1023.3,   67.1, -999.0
06-07-2022, 00:42:01,    305,    0.0,   11.3,   0.00,   0.00, 1023.3,   67.1, -999.0
06-07-2022, 00:42:11,    305,    0.0,   11.4,   0.00,   0.00, 1023.3,   67.1, -999.0
06-07-2022, 00:42:21,    305,    0.0,   11.4,   0.00,   0.00, 1023.3,   67.1, -999.0
06-07-2022, 00:42:31,    305,    0.0,   11.4,   0.00,   0.00, 1023.3,   67.0, -999.0
06-07-2022, 00:42:41,    305,    0.0,   11.4,   0.00,   0.00, 1023.3,   67.0, -999.0
06-07-2022, 00:42:51,    305,    0.0,   11.4,   0.00,   0.00, 1023.3,   66.9, -999.0
06-07-2022, 00:43:01,    305,    0.0,   11.4,   0.00,   0.00, 1023.3,   66.8, -999.0
06-07-2022, 00:43:11,    305,    0.0,   11.3,   0.00,   0.00, 1023.3,   66.9, -999.0
06-07-2022, 00:43:21,    305,    0.0,   11.3,   0.00,   0.00, 1023.3,   67.0, -999.0
06-07-2022, 00:43:31,    305,    0.0,   11.4,   0.00,   0.00, 1023.3,   66.9, -999.0
06-07-2022, 00:43:41,    305,    0.0,   11.4,   0.00,   0.00, 1023.3,   67.0, -999.0
06-07-2022, 00:43:51,    305,    0.0,   11.3,   0.00,   0.00, 1023.3,   67.1, -999.0
06-07-2022, 00:44:01,    305,    0.0,   11.4,   0.00,   0.00, 1023.3,   67.1, -999.0
06-07-2022, 00:44:11,    305,    0.0,   11.4,   0.00,   0.00, 1023.3,   67.1, -999.0
06-07-2022, 00:44:20,    305,    0.0,   11.4,   0.00,   0.00, 1023.3,   67.1, -999.0
06-07-2022, 00:44:31,    305,    0.0,   11.3,   0.00,   0.00, 1023.3,   67.1, -999.0
06-07-2022, 00:44:41,    305,    0.0,   11.4,   0.00,   0.00, 1023.3,   67.1, -999.0
06-07-2022, 00:44:50,    305,    0.0,   11.3,   0.00,   0.00, 1023.3,   67.1, -999.0
06-07-2022, 00:45:01,    305,    0.0,   11.3,   0.00,   0.00, 1023.3,   67.2, -999.0
06-07-2022, 00:45:10,    305,    0.0,   11.3,   0.00,   0.00, 1023.3,   67.0, -999.0
06-07-2022, 00:45:20,    305,    0.0,   11.3,   0.00,   0.00, 1023.3,   67.0, -999.0
06-07-2022, 00:45:30,    305,    0.0,   11.4,   0.00,   0.00, 1023.3,   67.1, -999.0
06-07-2022, 00:45:40,    305,    0.0,   11.3,   0.00,   0.00, 1023.3,   67.0, -999.0
06-07-2022, 00:45:50,    305,    0.0,   11.4,   0.00,   0.00, 1023.3,   67.0, -999.0
06-07-2022, 00:46:00,    305,    0.0,   11.4,   0.00,   0.00, 1023.3,   67.0, -999.0
06-07-2022, 00:46:10,    305,    0.0,   11.4,   0.00,   0.00, 1023.3,   67.2, -999.0
06-07-2022, 00:46:20,    305,    0.0,   11.4,   0.00,   0.00, 1023.3,   67.2, -999.0
06-07-2022, 00:46:30,    305,    0.0,   11.4,   0.00,   0.00, 1023.3,   67.1, -999.0
06-07-2022, 00:46:40,    305,    0.0,   11.3,   0.00,   0.00, 1023.3,   67.3, -999.0